Thursday, October 19, 2017, 7:05 AM EDT
Back to Local

KUCP, New Castle, New Castle Municipal Airport

Location: Edinburg, PA, United States Lat: 41.025
Local Time: 7:05 AM EDT (11:05 GMT) Lon: -80.413
Time Zone: US/Eastern Elev: 1072 ft

Show me the last for .
Show Coded

Time T Td Feel RH Dir Speed Gust Alt SLP Vis Weather Sky Remarks
2017-10-19 05:56 39 38 - 95 - Calm - 30.21 30.25 10 CLR None
2017-10-19 04:56 39 38 - 95 - Calm - 30.20 30.25 10 CLR None
2017-10-19 03:56 40 40 - 100 - Calm - 30.20 30.25 10 CLR None
2017-10-19 02:56 41 40 - 95 - Calm - 30.21 30.26 10 CLR None
2017-10-19 01:56 41 41 - 100 - Calm - 30.20 30.25 9 CLR 6-hr Min Temp (2am): 41.0°F
6-hr Max Temp (2am): 55.0°F
2017-10-19 00:56 42 42 - 100 - Calm - 30.20 30.25 10 CLR 24-hr Min Temp (1am): 37.0°F
24-hr Max Temp (1am): 71.1°F
2017-10-18 23:56 44 43 - 95 - Calm - 30.21 30.26 10 CLR None
2017-10-18 22:56 45 43 - 92 - Calm - 30.21 30.26 10 CLR None
2017-10-18 21:56 48 44 - 86 - Calm - 30.22 30.27 10 CLR None
2017-10-18 20:56 49 43 - 79 - Calm - 30.22 30.28 10 CLR None
2017-10-18 18:56 61 42 - 49 140° 3 - 30.22 30.27 10 CLR None
2017-10-18 17:56 68 42 - 38 220° 3 - 30.22 30.27 10 CLR None
2017-10-18 16:56 71 42 - 35 200° 6 - 30.22 30.27 10 CLR None
2017-10-18 15:56 70 43 - 37 190° 7 - 30.24 30.28 10 CLR None
2017-10-18 14:56 70 43 - 37 220° 7 - 30.26 30.30 10 CLR None
2017-10-18 13:56 67 41 - 38 Variable 6 - 30.29 30.33 10 CLR 6-hr Min Temp (2pm): 37.9°F
6-hr Max Temp (2pm): 68.0°F
2017-10-18 12:56 66 43 - 43 Variable 5 - 30.33 30.37 10 CLR None
2017-10-18 11:56 63 44 - 50 190° 6 - 30.35 30.40 10 CLR None
2017-10-18 10:56 58 44 - 59 - Calm - 30.35 30.40 10 CLR None
2017-10-18 09:56 51 42 - 71 Variable 3 - 30.36 30.41 10 CLR None
2017-10-18 08:56 43 42 - 96 - Calm - 30.36 30.42 10 CLR None

Support USWX by starting your Amazon purchase here.